Location: Eimen
(51.8766°N, 9.7806°E)
Time: 15:56:53
(UTC+00:00)

Cosmos 2360 Rocket - Pass Details

Date: 23 May 2024
Orbit: 832 x 846 km, 71.0° (Epoch: 24 June)

Event Time Altitude Azimuth Distance (km) Brightness Sun altitude
Rises 01:56:36 0° 327° (NNW) 3,417 5.6 -9.6°
Reaches altitude 10° 01:59:05 10° 324° (NW) 2,478 4.8 -9.4°
Maximum altitude 02:04:38 57° 247° (WSW) 993 2.3 -8.8°
Drops below altitude 10° 02:10:09 10° 170° (S) 2,462 4.3 -8.3°
Sets 02:12:37 0° 166° (SSE) 3,393 5.0 -8.0°
